User: anonymous   Login
Location: Unspecified
(0.0000°N, 0.0000°E)
Time: 19:42:05
(UTC+00:00)
Language:

COSMOS 2400 - Orbit

View from above orbital plane
View from above orbital plane
View from above satellite
View from above satellite

Ground track
Ground track

The orbit data is extracted from the following two-line orbital elements,

1 27868U 03037A   21025.72807238  .00000022  00000-0  81821-4 0  9999
2 27868  82.4726 124.0722 0022327  44.9275 315.3608 12.45142100792663
Epoch (UTC): 25 January 2021 17:28:25
Eccentricity: 0.0022327
inclination: 82.4726°
perigee height: 1467 km
apogee height: 1502 km
right ascension of ascending node: 124.0722°
argument of perigee: 44.9275°
revolutions per day: 12.45142100
mean anomaly at epoch: 315.3608°
orbit number at epoch: 79266

The dashed part of the orbit path shows where the satellite is in the earth's shadow,  

DLR